パンスターズ彗星

C/2020 Q2 ( PanSTARRS )

English version
Home page
Updated on October 10, 2020

---------------------------------------------------------------------

・ プロフィール

発見日 2020年8月22日
発見光度 21.0等
発見者 Pan-STARRS 1 telescope (Haleakala)

・ 軌道要素

Epoch 2020 Feb. 1.0 TT = JDT 2458880.5
T 2020 Feb. 6.32663 TT                                  Rudenko
q   5.4001146            (2000.0)            P               Q
n   0.02692068     Peri.  118.22615     +0.47528814     +0.87983019
a  11.0258476      Node   180.15221     -0.82606852     +0.44618598
e   0.5102313      Incl.    3.30144     -0.30283987     +0.16375869
P  36.6
From 46 observations 2020 June 29-Sept. 13, mean residual 0".5.

・ 光度変化

        m1 = 10.5 + 5 logΔ + 10.0 log r

---------------------------------------------------------------------

軌道要素はM.P.E.C. 2020-S188に掲載されたものです。
光度グラフはComet for Windowsで作成したものです。

---------------------------------------------------------------------

Copyright(C) Seiichi Yoshida (comet@aerith.net). All rights reserved.